This is the latest recevied weather packets stored in our database for station/object OE2ATN. If no packets are shown the sender has not sent any weather packets the latest 10 day(s).
| Time | Temp. | Humidity | Pressure | Rain* | Wind** | Luminosity | Snow |
|---|---|---|---|---|---|---|---|
| 1777468087 | 15.56° C | 55% | 1025.7 hPa | 0 mm | - | - | - |
| 1777467786 | 15.56° C | 58% | 1025.8 hPa | 0 mm | - | - | - |
| 1777467487 | 15.56° C | 56% | 1025.9 hPa | 0 mm | - | - | - |
| 1777467188 | 16.11° C | 55% | 1025.9 hPa | 0 mm | - | - | - |
| 1777466886 | 15.56° C | 57% | 1025.9 hPa | 0 mm | - | - | - |
| 1777466587 | 15.56° C | 60% | 1025.8 hPa | 0 mm | - | - | - |
| 1777466287 | 15° C | 57% | 1025.8 hPa | 0 mm | - | - | - |
| 1777465987 | 15° C | 59% | 1025.8 hPa | 0 mm | - | - | - |
| 1777465686 | 15° C | 58% | 1025.8 hPa | 0 mm | - | - | - |
| 1777465386 | 14.44° C | 57% | 1025.9 hPa | 0 mm | - | - | - |
| 1777465088 | 14.44° C | 58% | 1025.9 hPa | 0 mm | - | - | - |
| 1777464788 | 15° C | 59% | 1026 hPa | 0 mm | - | - | - |
| 1777464487 | 15° C | 59% | 1026 hPa | 0 mm | - | - | - |
| 1777464187 | 15° C | 59% | 1026 hPa | 0 mm | - | - | - |
| 1777463887 | 15° C | 58% | 1026 hPa | 0 mm | - | - | - |
| 1777463586 | 14.44° C | 63% | 1025.9 hPa | 0 mm | - | - | - |
| 1777463287 | 14.44° C | 60% | 1026.1 hPa | 0 mm | - | - | - |
| 1777462987 | 14.44° C | 63% | 1026.1 hPa | 0 mm | - | - | - |
| 1777462689 | 14.44° C | 62% | 1026 hPa | 0 mm | - | - | - |
| 1777462086 | 14.44° C | 60% | 1026.1 hPa | 0 mm | - | - | - |
| 1777461787 | 13.89° C | 63% | 1026.1 hPa | 0 mm | - | - | - |
| 1777461487 | 13.89° C | 63% | 1026.2 hPa | 0 mm | - | - | - |
| 1777461186 | 13.33° C | 64% | 1026.3 hPa | 0 mm | - | - | - |
| 1777460887 | 13.33° C | 63% | 1026.2 hPa | 0 mm | - | - | - |
| 1777460588 | 13.33° C | 63% | 1026.3 hPa | 0 mm | - | - | - |
* Rain latest hour (hover to see other rain measurements)
** Current wind speed in m/s (hover to see current wind gust speed)